EW0401 Weather Reports


Display with metric or nautical units.
time (UTC)temp
F
wind
direction
speed
MPH
gust
MPH
rain 1hr
in
rain 24hr
in
rain mn
in
humidity
%
barometer
mb
20260509183104 85 0 0.0 3.0 0.00 0.02 0.00 78 1010.2
20260509181558 84 0 0.0 4.0 0.00 0.02 0.00 79 1010.3
20260509180051 84 0 0.0 3.0 0.00 0.02 0.00 79 1010.6
20260509174553 83 0 0.0 3.0 0.00 0.03 0.00 80 1010.9
20260509173057 83 0 0.0 1.0 0.00 0.03 0.00 80 1011.0
20260509171556 83 0 0.0 2.0 0.00 0.03 0.00 80 1011.1
20260509170053 83 0 0.0 2.0 0.00 0.03 0.00 80 1011.3
20260509164553 83 0 0.0 2.0 0.00 0.04 0.00 80 1011.1
20260509163101 83 0 0.0 4.0 0.00 0.04 0.00 80 1010.9
20260509161604 82 213 0.0 2.0 0.00 0.04 0.00 81 1011.0
20260509160055 81 0 0.0 0.0 0.00 0.04 0.00 85 1011.0
20260509154603 80 0 0.0 0.0 0.00 0.05 0.00 86 1011.2
20260509153058 79 0 0.0 1.0 0.00 0.05 0.00 87 1011.2
20260509151600 78 0 0.0 2.0 0.00 0.05 0.00 88 1010.4
20260509144556 78 0 0.0 0.0 0.00 0.10 0.00 89 1011.2
20260509143101 77 0 0.0 2.0 0.00 0.10 0.00 90 1011.1
20260509141600 77 0 0.0 3.0 0.00 0.10 0.00 91 1010.6
20260509134551 76 0 0.0 0.0 0.00 0.10 0.00 92 1010.6
20260509133051 75 0 0.0 0.0 0.00 0.10 0.00 92 1011.1
20260509131554 75 0 0.0 0.0 0.00 0.10 0.00 92 1011.1
20260509130052 74 0 0.0 0.0 0.00 0.10 0.00 92 1011.4
20260509125041 74 39 0.0 0.0 0.00 0.10 0.00 92 1010.9
20260509124553 74 0 0.0 0.0 0.00 0.10 0.00 91 1011.0
20260509124530 74 39 0.0 0.0 0.00 0.10 0.00 92 1010.7
20260509124506 74 39 0.0 0.0 0.00 0.10 0.00 92 1010.6
20260509124028 74 39 0.0 0.0 0.00 0.10 0.00 92 1010.6
20260509123115 74 0 0.0 0.0 0.00 0.10 0.00 91 1010.6
20260509121559 74 0 0.0 0.0 0.00 0.10 0.00 91 1010.4
20260509120052 73 0 0.0 0.0 0.00 0.10 0.00 91 1010.5
20260509114556 74 0 0.0 0.0 0.00 0.10 0.00 91 1010.8
20260509113053 74 0 0.0 0.0 0.00 0.10 0.00 91 1011.0
20260509111552 74 0 0.0 0.0 0.00 0.10 0.00 91 1010.8
20260509110100 74 0 0.0 0.0 0.00 0.10 0.00 91 1010.6
20260509104552 74 0 0.0 0.0 0.00 0.10 0.00 91 1010.1
20260509103101 74 0 0.0 0.0 0.00 0.10 0.00 91 1010.4
20260509101603 74 0 0.0 0.0 0.00 0.10 0.00 91 1010.3
20260509094559 74 0 0.0 0.0 0.00 0.10 0.00 91 1010.0
20260509093054 74 0 0.0 0.0 0.00 0.10 0.00 91 1009.9
20260509091557 74 0 0.0 0.0 0.00 0.10 0.00 91 1009.7
20260509090057 74 0 0.0 0.0 0.00 0.10 0.00 91 1009.7
20260509084554 74 0 0.0 0.0 0.00 0.10 0.00 91 1010.1
20260509083101 74 0 0.0 0.0 0.00 0.10 0.00 91 1010.2
20260509081556 74 0 0.0 0.0 0.00 0.10 0.00 91 1010.1
20260509080059 74 0 0.0 0.0 0.00 0.10 0.00 91 1010.2
20260509074608 74 0 0.0 0.0 0.00 0.10 0.00 91 1010.5
20260509073054 74 0 0.0 0.0 0.00 0.10 0.00 91 1010.7
20260509071607 74 0 0.0 0.0 0.00 0.10 0.00 91 1010.5
20260509070100 74 0 0.0 0.0 0.00 0.10 0.00 91 1010.4
20260509064601 75 0 0.0 0.0 0.00 0.10 0.00 91 1010.4
20260509063058 75 0 0.0 0.0 0.00 0.10 0.00 91 1010.6
20260509061601 75 0 0.0 0.0 0.00 0.10 0.00 91 1010.7
20260509054610 75 0 0.0 0.0 0.00 0.10 0.00 90 1011.0
20260509053053 75 0 0.0 1.0 0.00 0.10 0.00 91 1010.8
20260509051603 75 0 0.0 2.0 0.00 0.10 0.00 91 1011.1
20260509050056 74 0 0.0 0.0 0.00 0.10 0.00 90 1011.1
20260509044552 74 0 0.0 0.0 0.00 0.10 0.10 90 1011.4
20260509043100 74 0 0.0 2.0 0.00 0.10 0.10 90 1011.2
20260509041554 74 0 0.0 0.0 0.00 0.10 0.10 90 1011.0
20260509040055 74 0 0.0 3.0 0.00 0.10 0.10 90 1010.6
20260509034555 74 0 0.0 2.0 0.00 0.10 0.10 90 1010.9
20260509033056 74 0 0.0 2.0 0.00 0.10 0.10 90 1010.7
20260509031617 73 0 0.0 3.0 0.00 0.10 0.10 90 1010.6
20260509030057 73 0 0.0 0.0 0.00 0.10 0.10 90 1010.6
20260509024552 73 0 0.0 0.0 0.00 0.10 0.10 89 1010.5
20260509023056 73 0 0.0 0.0 0.00 0.10 0.10 89 1010.6
20260509021554 73 0 0.0 2.0 0.00 0.10 0.10 89 1010.6
20260509020053 73 0 0.0 2.0 0.00 0.10 0.10 89 1010.1
20260509014550 73 0 0.0 2.0 0.00 0.10 0.10 89 1010.0
20260509013049 73 0 0.0 0.0 0.00 0.10 0.10 89 1010.0
20260509011553 73 0 0.0 0.0 0.00 0.10 0.10 89 1010.1
20260509010050 73 0 0.0 2.0 0.00 0.10 0.10 89 1009.7
20260509004555 74 0 0.0 0.0 0.00 0.10 0.10 89 1009.9
20260509003055 74 0 0.0 2.0 0.00 0.10 0.10 89 1009.6
20260509001554 74 0 0.0 1.0 0.00 0.10 0.10 89 1009.7
20260509000105 74 0 0.0 0.0 0.00 0.10 0.10 89 1010.0
20260508234603 74 0 0.0 2.0 0.00 0.10 0.10 88 1010.5
20260508233058 74 0 0.0 2.0 0.00 0.10 0.10 88 1010.2
20260508231553 74 42 0.0 2.0 0.00 0.10 0.10 88 1009.9
20260508224556 74 0 0.0 2.0 0.00 0.10 0.10 89 1009.9
20260508223054 74 0 0.0 2.0 0.00 0.10 0.10 89 1010.1
20260508221558 73 0 0.0 2.0 0.00 0.10 0.10 89 1010.0
20260508220055 73 0 0.0 0.0 0.00 0.10 0.10 89 1010.2
20260508214607 73 0 0.0 1.0 0.00 0.10 0.10 89 1010.4
20260508213115 73 0 0.0 2.0 0.00 0.10 0.10 89 1010.3
20260508211558 72 0 0.0 2.0 0.00 0.10 0.10 89 1010.4
20260508210058 73 0 0.0 3.0 0.00 0.10 0.10 89 1010.7
20260508204617 72 0 0.0 3.0 0.01 0.10 0.10 90 1010.2
20260508203059 72 0 0.0 3.0 0.01 0.10 0.10 90 1010.9
20260508201609 72 0 0.0 1.0 0.01 0.10 0.10 91 1011.2
20260508200121 71 0 0.0 2.0 0.01 0.10 0.10 90 1011.2
20260508194554 70 0 0.0 0.0 0.00 0.09 0.09 90 1011.2
20260508193057 70 0 0.0 0.0 0.00 0.09 0.09 90 1011.5
20260508191556 70 0 0.0 2.0 0.01 0.09 0.09 90 1011.5
20260508184556 69 0 0.0 2.0 0.01 0.09 0.09 91 1011.5